AMX136 MMMX-MMLO

Flight info

Callsign AMX136
Flight time 0h 46m
Altitude 28000
Route SEBON3B SEBON UT125 MLM UJ40 OMINA OMINA1D
Aircraft B738/M-SDE2E3FGHIRWXY/LB1

Departure

Time 2026-04-17 21:56
Airport Mexico City Benito Juárez International Airport (MMMX)

Arrival

Time 2026-04-17 22:42
Airport Guanajuato International Airport (MMLO)
Time Latitude Longitude Altitude Speed Heading
2026-04-17 21:37 19.42485 -99.07880 7347 ft 0 kts 163°
2026-04-17 21:49 19.42487 -99.07880 7347 ft 0 kts 165°
2026-04-17 21:49 19.42499 -99.07880 7347 ft 3 kts 189°
2026-04-17 21:49 19.42527 -99.07874 7347 ft 3 kts 190°
2026-04-17 21:50 19.42526 -99.07876 7347 ft 1 kts 210°
2026-04-17 21:50 19.42521 -99.07922 7347 ft 10 kts 278°
2026-04-17 21:50 19.42515 -99.07992 7347 ft 9 kts 248°
2026-04-17 21:50 19.42491 -99.08043 7348 ft 6 kts 238°
2026-04-17 21:51 19.42473 -99.08073 7349 ft 3 kts 239°
2026-04-17 21:51 19.42462 -99.08094 7349 ft 4 kts 240°
2026-04-17 21:51 19.42421 -99.08170 7349 ft 13 kts 243°
2026-04-17 21:51 19.42440 -99.08250 7348 ft 12 kts 330°
2026-04-17 21:52 19.42510 -99.08277 7349 ft 9 kts 332°
2026-04-17 21:52 19.42560 -99.08307 7349 ft 7 kts 329°
2026-04-17 21:52 19.42594 -99.08329 7349 ft 0 kts 330°
2026-04-17 21:55 19.42594 -99.08330 7349 ft 0 kts 330°
2026-04-17 21:55 19.42596 -99.08331 7349 ft 0 kts 330°
2026-04-17 21:55 19.42699 -99.08388 7350 ft 30 kts 339°
2026-04-17 21:55 19.42850 -99.08289 7354 ft 40 kts 41°
2026-04-17 21:56 19.43165 -99.07791 7354 ft 124 kts 60°
2026-04-17 21:56 19.43741 -99.06767 7354 ft 195 kts 56°
2026-04-17 21:56 19.44390 -99.05451 8094 ft 211 kts 61°
2026-04-17 21:56 19.45038 -99.04087 9216 ft 209 kts 56°
2026-04-17 21:57 19.45808 -99.02960 10557 ft 189 kts 50°
2026-04-17 21:57 19.46654 -99.01794 10891 ft 233 kts 52°
2026-04-17 21:57 19.47717 -99.00150 10440 ft 284 kts 57°
2026-04-17 21:57 19.48521 -98.98759 12517 ft 197 kts 57°
2026-04-17 21:58 19.49224 -98.97534 13080 ft 214 kts 59°
2026-04-17 21:58 19.49782 -98.95901 12998 ft 261 kts 85°
2026-04-17 21:58 19.49336 -98.93977 13602 ft 286 kts 121°
2026-04-17 21:58 19.47869 -98.92641 14857 ft 280 kts 158°
2026-04-17 21:59 19.46047 -98.92409 16184 ft 265 kts 191°
2026-04-17 21:59 19.44390 -98.93227 16971 ft 273 kts 222°
2026-04-17 21:59 19.43239 -98.94928 17268 ft 300 kts 245°
2026-04-17 21:59 19.42478 -98.96930 18256 ft 297 kts 247°
2026-04-17 22:00 19.41563 -98.98977 18780 ft 314 kts 241°
2026-04-17 22:00 19.40429 -99.00986 19422 ft 326 kts 237°
2026-04-17 22:00 19.39146 -99.03023 20033 ft 339 kts 236°
2026-04-17 22:00 19.37826 -99.05157 20563 ft 354 kts 240°
2026-04-17 22:01 19.36796 -99.07473 21522 ft 353 kts 251°
2026-04-17 22:01 19.36181 -99.10000 22384 ft 356 kts 260°
2026-04-17 22:01 19.35816 -99.12595 23181 ft 360 kts 263°
2026-04-17 22:01 19.35523 -99.15234 23949 ft 364 kts 263°
2026-04-17 22:02 19.35225 -99.17892 24673 ft 369 kts 262°
2026-04-17 22:02 19.34899 -99.20575 25448 ft 371 kts 261°
2026-04-17 22:02 19.34546 -99.23280 26395 ft 367 kts 261°
2026-04-17 22:02 19.34186 -99.25908 27355 ft 362 kts 260°
2026-04-17 22:03 19.33815 -99.28529 28124 ft 362 kts 260°
2026-04-17 22:03 19.33429 -99.31191 28376 ft 371 kts 259°
2026-04-17 22:03 19.33039 -99.33859 28407 ft 369 kts 259°
2026-04-17 22:04 19.32544 -99.39184 28416 ft 359 kts 270°
2026-04-17 22:04 19.33563 -99.44348 28428 ft 366 kts 284°
2026-04-17 22:05 19.35107 -99.49483 28427 ft 366 kts 284°
2026-04-17 22:05 19.36635 -99.54626 28434 ft 365 kts 284°
2026-04-17 22:06 19.37972 -99.59783 28433 ft 363 kts 277°
2026-04-17 22:06 19.38124 -99.65061 28433 ft 358 kts 264°
2026-04-17 22:07 19.37725 -99.70307 28424 ft 358 kts 263°
2026-04-17 22:07 19.37342 -99.75526 28431 ft 358 kts 263°
2026-04-17 22:08 19.36995 -99.80779 28435 ft 358 kts 264°
2026-04-17 22:08 19.36655 -99.86037 28440 ft 359 kts 264°
2026-04-17 22:09 19.36326 -99.91264 28457 ft 357 kts 264°
2026-04-17 22:09 19.35994 -99.96501 28465 ft 358 kts 264°
2026-04-17 22:10 19.35644 -100.01917 28464 ft 381 kts 264°
2026-04-17 22:10 19.35272 -100.07617 28659 ft 399 kts 264°
2026-04-17 22:10 19.35254 -100.10596 28781 ft 410 kts 271°
2026-04-17 22:11 19.35584 -100.13626 28909 ft 418 kts 273°
2026-04-17 22:11 19.35652 -100.16710 29032 ft 423 kts 264°
2026-04-17 22:11 19.35361 -100.19830 29159 ft 429 kts 261°
2026-04-17 22:11 19.34960 -100.22967 29283 ft 436 kts 261°
2026-04-17 22:12 19.34585 -100.26152 29406 ft 443 kts 262°
2026-04-17 22:12 19.34289 -100.29433 29531 ft 450 kts 264°
2026-04-17 22:12 19.34097 -100.32748 29657 ft 456 kts 265°
2026-04-17 22:12 19.34093 -100.36090 29781 ft 459 kts 271°
2026-04-17 22:13 19.34546 -100.39440 29907 ft 461 kts 280°
2026-04-17 22:13 19.35516 -100.42688 30035 ft 463 kts 289°
2026-04-17 22:13 19.36965 -100.45709 30163 ft 466 kts 298°
2026-04-17 22:13 19.38893 -100.48505 30292 ft 470 kts 307°
2026-04-17 22:14 19.41121 -100.51004 30420 ft 473 kts 312°
2026-04-17 22:14 19.43512 -100.53391 30549 ft 473 kts 314°
2026-04-17 22:14 19.45902 -100.55754 30677 ft 470 kts 313°
2026-04-17 22:14 19.48241 -100.58163 30807 ft 468 kts 311°
2026-04-17 22:15 19.50510 -100.60636 30937 ft 468 kts 310°
2026-04-17 22:15 19.52707 -100.63160 31067 ft 466 kts 309°
2026-04-17 22:15 19.54858 -100.65728 31196 ft 464 kts 307°
2026-04-17 22:15 19.56974 -100.68329 31324 ft 465 kts 307°
2026-04-17 22:16 19.59055 -100.70938 31457 ft 463 kts 306°
2026-04-17 22:16 19.61122 -100.73565 31590 ft 462 kts 306°
2026-04-17 22:16 19.63184 -100.76205 31723 ft 462 kts 306°
2026-04-17 22:16 19.65211 -100.78813 31853 ft 463 kts 306°
2026-04-17 22:17 19.67258 -100.81457 31984 ft 462 kts 306°
2026-04-17 22:17 19.69287 -100.84080 32116 ft 461 kts 305°
2026-04-17 22:17 19.71306 -100.86694 32240 ft 460 kts 305°
2026-04-17 22:18 19.75368 -100.91955 32258 ft 460 kts 305°
2026-04-17 22:18 19.79433 -100.97218 32219 ft 458 kts 306°
2026-04-17 22:19 19.83638 -101.02319 32201 ft 463 kts 312°
2026-04-17 22:19 19.86204 -101.04407 32200 ft 471 kts 326°
2026-04-17 22:19 19.89190 -101.05924 32210 ft 475 kts 333°
2026-04-17 22:20 19.95441 -101.08329 32232 ft 479 kts 337°
2026-04-17 22:20 20.01754 -101.10572 32232 ft 480 kts 337°
2026-04-17 22:21 20.08062 -101.12872 32250 ft 479 kts 336°
2026-04-17 22:21 20.14370 -101.15237 32278 ft 478 kts 336°
2026-04-17 22:22 20.20628 -101.17628 32288 ft 478 kts 336°
2026-04-17 22:22 20.26914 -101.20045 32290 ft 478 kts 336°
2026-04-17 22:23 20.33161 -101.22443 32285 ft 479 kts 336°
2026-04-17 22:23 20.39465 -101.24830 32287 ft 479 kts 337°
2026-04-17 22:24 20.45977 -101.26505 32268 ft 476 kts 349°
2026-04-17 22:24 20.49158 -101.26798 32282 ft 452 kts 353°
2026-04-17 22:24 20.52252 -101.26910 32279 ft 427 kts 354°
2026-04-17 22:24 20.55126 -101.26941 32306 ft 402 kts 355°
2026-04-17 22:25 20.57833 -101.26945 32279 ft 376 kts 355°
2026-04-17 22:25 20.60411 -101.26955 31915 ft 361 kts 354°
2026-04-17 22:25 20.62883 -101.26987 31341 ft 350 kts 354°
2026-04-17 22:25 20.65270 -101.27038 30518 ft 349 kts 353°
2026-04-17 22:26 20.67708 -101.27105 29289 ft 359 kts 353°
2026-04-17 22:26 20.70203 -101.27181 28604 ft 349 kts 354°
2026-04-17 22:26 20.72589 -101.27248 28126 ft 335 kts 353°
2026-04-17 22:26 20.74862 -101.27311 27737 ft 321 kts 353°
2026-04-17 22:27 20.77057 -101.27378 27187 ft 315 kts 352°
2026-04-17 22:27 20.79230 -101.27626 26266 ft 320 kts 348°
2026-04-17 22:27 20.81527 -101.27542 24980 ft 343 kts 13°
2026-04-17 22:27 20.83550 -101.26318 24491 ft 334 kts 42°
2026-04-17 22:28 20.84790 -101.24313 23952 ft 324 kts 72°
2026-04-17 22:28 20.85022 -101.21951 23019 ft 322 kts 101°
2026-04-17 22:28 20.84212 -101.19799 22179 ft 313 kts 126°
2026-04-17 22:28 20.82934 -101.17938 21158 ft 318 kts 131°
2026-04-17 22:29 20.81531 -101.16129 20154 ft 320 kts 132°
2026-04-17 22:29 20.80088 -101.14313 19184 ft 320 kts 132°
2026-04-17 22:29 20.78648 -101.12517 18229 ft 319 kts 132°
2026-04-17 22:29 20.77206 -101.10741 17282 ft 318 kts 132°
2026-04-17 22:30 20.75767 -101.08988 16335 ft 316 kts 132°
2026-04-17 22:30 20.74331 -101.07258 15403 ft 313 kts 132°
2026-04-17 22:30 20.72891 -101.05552 14478 ft 311 kts 132°
2026-04-17 22:30 20.71322 -101.04005 13594 ft 307 kts 147°
2026-04-17 22:31 20.69337 -101.03370 13015 ft 293 kts 180°
2026-04-17 22:31 20.67492 -101.03936 12769 ft 268 kts 214°
2026-04-17 22:31 20.66389 -101.05375 12605 ft 245 kts 251°
2026-04-17 22:31 20.66342 -101.07108 12404 ft 234 kts 289°
2026-04-17 22:32 20.67108 -101.08656 12054 ft 236 kts 304°
2026-04-17 22:32 20.68053 -101.10055 11693 ft 233 kts 309°
2026-04-17 22:32 20.69074 -101.11391 11332 ft 230 kts 311°
2026-04-17 22:32 20.70098 -101.12697 10972 ft 229 kts 311°
2026-04-17 22:33 20.71110 -101.14003 10611 ft 229 kts 310°
2026-04-17 22:33 20.72120 -101.15321 10242 ft 229 kts 310°
2026-04-17 22:33 20.73122 -101.16630 9877 ft 228 kts 310°
2026-04-17 22:33 20.74136 -101.17951 9524 ft 233 kts 310°
2026-04-17 22:34 20.75177 -101.19304 9149 ft 234 kts 311°
2026-04-17 22:34 20.76186 -101.20620 8871 ft 227 kts 310°
2026-04-17 22:34 20.77167 -101.21899 8840 ft 222 kts 310°
2026-04-17 22:34 20.78172 -101.23207 8844 ft 229 kts 311°
2026-04-17 22:35 20.79187 -101.24526 8845 ft 230 kts 310°
2026-04-17 22:35 20.80204 -101.25852 8842 ft 230 kts 310°
2026-04-17 22:35 20.81216 -101.27169 8752 ft 229 kts 310°
2026-04-17 22:35 20.82221 -101.28476 8752 ft 226 kts 310°
2026-04-17 22:36 20.83232 -101.29792 8757 ft 229 kts 311°
2026-04-17 22:36 20.84245 -101.31108 8758 ft 229 kts 310°
2026-04-17 22:36 20.85256 -101.32425 8759 ft 229 kts 311°
2026-04-17 22:36 20.86271 -101.33735 8759 ft 228 kts 313°
2026-04-17 22:37 20.87347 -101.34996 8758 ft 228 kts 315°
2026-04-17 22:37 20.88449 -101.36189 8759 ft 228 kts 316°
2026-04-17 22:37 20.89580 -101.37388 8761 ft 228 kts 316°
2026-04-17 22:37 20.90698 -101.38598 8763 ft 228 kts 315°
2026-04-17 22:38 20.91813 -101.39824 8761 ft 228 kts 315°
2026-04-17 22:38 20.92925 -101.41049 8764 ft 228 kts 315°
2026-04-17 22:38 20.94025 -101.42255 8765 ft 229 kts 315°
2026-04-17 22:38 20.95141 -101.43476 8763 ft 229 kts 316°
2026-04-17 22:39 20.96251 -101.44692 8727 ft 227 kts 315°
2026-04-17 22:39 20.97604 -101.45486 7972 ft 235 kts
2026-04-17 22:39 20.99116 -101.43281 7487 ft 188 kts 111°
2026-04-17 22:40 20.98265 -101.42377 7333 ft 178 kts 160°
2026-04-17 22:40 20.97032 -101.41872 7177 ft 195 kts 160°
2026-04-17 22:40 20.95832 -101.41862 7768 ft 165 kts 208°
2026-04-17 22:40 20.94959 -101.42763 7674 ft 184 kts 252°
2026-04-17 22:41 20.95208 -101.43950 7791 ft 179 kts 319°
2026-04-17 22:41 20.96214 -101.45001 7025 ft 215 kts 315°
2026-04-17 22:41 20.97458 -101.45811 6362 ft 205 kts 315°
2026-04-17 22:41 20.98213 -101.46942 6093 ft 182 kts 324°
2026-04-17 22:42 20.99070 -101.47811 5926 ft 160 kts 315°
2026-04-17 22:42 20.99747 -101.48539 5938 ft 100 kts 314°
2026-04-17 22:42 21.00040 -101.48878 5949 ft 42 kts 314°
2026-04-17 22:42 21.00205 -101.49047 5951 ft 30 kts 317°
2026-04-17 22:43 21.00333 -101.49206 5948 ft 24 kts 283°
2026-04-17 22:43 21.00381 -101.49273 5945 ft 4 kts 62°
2026-04-17 22:43 21.00346 -101.49203 5948 ft 31 kts 128°
2026-04-17 22:43 21.00109 -101.48950 5951 ft 51 kts 133°
2026-04-17 22:44 20.99865 -101.48672 5943 ft 51 kts 134°
2026-04-17 22:44 20.99606 -101.48403 5934 ft 51 kts 133°
2026-04-17 22:44 20.99362 -101.48118 5926 ft 51 kts 133°
2026-04-17 22:44 20.99098 -101.47881 5926 ft 47 kts 156°
2026-04-17 22:45 20.98901 -101.47820 5924 ft 23 kts 166°
2026-04-17 22:45 20.98774 -101.47800 5921 ft 15 kts 187°
2026-04-17 22:45 20.98707 -101.47801 5919 ft 8 kts 190°
2026-04-17 22:45 20.98671 -101.47826 5917 ft 1 kts 231°
2026-04-17 22:46 20.98662 -101.47835 5917 ft 0 kts 225°
2026-04-17 22:46 20.98661 -101.47836 5917 ft 0 kts 225°